IS0KST Weather Reports


Display with metric or nautical units.
time (UTC)temp
F
wind
direction
speed
MPH
gust
MPH
rain 1hr
in
rain 24hr
in
rain mn
in
humidity
%
barometer
mb
20260508064504 62 283 3.0 8.0 0.01 0.23 0.23 88 1011.7
20260508064004 61 270 4.0 8.0 0.01 0.23 0.23 88 1011.7
20260508063504 61 301 2.0 7.0 0.01 0.23 0.23 89 1011.6
20260508063004 61 292 1.0 9.0 0.01 0.23 0.23 90 1011.7
20260508062504 61 290 5.0 9.0 0.01 0.23 0.23 90 1011.7
20260508062004 61 303 5.0 10.0 0.01 0.23 0.23 90 1011.6
20260508061503 61 292 7.0 10.0 0.01 0.23 0.23 90 1011.5
20260508061003 61 281 6.0 8.0 0.00 0.22 0.22 91 1011.6
20260508060504 60 270 5.0 8.0 0.00 0.22 0.22 91 1011.5
20260508060004 60 293 5.0 9.0 0.00 0.22 0.22 91 1011.5
20260508055504 60 277 3.0 8.0 0.00 0.22 0.22 92 1011.3
20260508055004 60 291 6.0 9.0 0.00 0.22 0.22 92 1011.4
20260508054503 60 291 5.0 10.0 0.00 0.22 0.22 92 1011.2
20260508054003 60 290 5.0 8.0 0.00 0.22 0.22 92 1011.1
20260508053004 60 299 5.0 8.0 0.00 0.22 0.22 92 1011.0
20260508052503 60 281 5.0 8.0 0.00 0.22 0.22 92 1011.0
20260508052004 60 296 3.0 7.0 0.01 0.22 0.22 92 1010.8
20260508051504 60 267 3.0 6.0 0.01 0.22 0.22 92 1010.8
20260508050504 60 277 5.0 10.0 0.02 0.22 0.22 92 1010.8
20260508050003 60 280 6.0 8.0 0.04 0.22 0.22 92 1010.9
20260508045503 60 264 4.0 7.0 0.06 0.22 0.22 92 1010.8
20260508045003 60 271 4.0 6.0 0.08 0.22 0.22 92 1010.7
20260508044504 60 290 3.0 7.0 0.09 0.22 0.22 91 1010.6
20260508044003 60 263 4.0 7.0 0.10 0.22 0.22 91 1010.5
20260508043504 60 284 4.0 7.0 0.12 0.22 0.22 91 1010.5
20260508043004 60 261 5.0 9.0 0.13 0.22 0.22 91 1010.5
20260508042504 60 254 2.0 6.0 0.13 0.22 0.22 91 1010.5
20260508041004 60 302 4.0 7.0 0.13 0.20 0.20 90 1010.5
20260508040504 60 278 2.0 5.0 0.13 0.20 0.20 90 1010.6
20260508040004 60 274 3.0 6.0 0.11 0.18 0.18 90 1010.6
20260508035503 60 276 3.0 3.0 0.09 0.16 0.16 90 1010.4
20260508035003 60 276 1.0 3.0 0.08 0.14 0.14 90 1010.4
20260508034504 60 288 3.0 8.0 0.07 0.13 0.13 90 1010.5
20260508034004 60 296 5.0 9.0 0.06 0.12 0.12 89 1010.6
20260508033504 60 280 5.0 10.0 0.04 0.10 0.10 89 1010.4
20260508033003 60 285 5.0 12.0 0.04 0.09 0.09 89 1010.4
20260508032503 60 287 5.0 9.0 0.03 0.09 0.09 88 1010.4
20260508031504 61 285 5.0 9.0 0.03 0.07 0.07 88 1010.4
20260508031004 61 286 6.0 9.0 0.04 0.07 0.07 88 1010.6
20260508030503 61 304 6.0 12.0 0.04 0.07 0.07 87 1010.5
20260508030004 61 289 6.0 10.0 0.05 0.07 0.07 87 1010.4
20260508025503 61 290 6.0 10.0 0.06 0.07 0.07 87 1010.3
20260508025003 61 298 6.0 12.0 0.06 0.06 0.06 87 1010.3
20260508024503 61 307 3.0 8.0 0.06 0.06 0.06 87 1010.3
20260508024003 61 304 3.0 7.0 0.06 0.06 0.06 87 1010.3
20260508023503 61 293 5.0 10.0 0.06 0.06 0.06 87 1010.2
20260508023003 61 293 3.0 8.0 0.06 0.06 0.06 87 1010.2
20260508022004 62 303 4.0 8.0 0.05 0.05 0.05 86 1010.3
20260508021504 62 275 5.0 9.0 0.04 0.04 0.04 86 1010.3
20260508021004 62 293 4.0 7.0 0.03 0.03 0.03 85 1010.2
20260508020503 62 315 3.0 5.0 0.03 0.03 0.03 84 1010.2
20260508020004 63 302 3.0 7.0 0.02 0.02 0.02 83 1010.3
20260508015004 64 12 3.0 3.0 0.01 0.01 0.01 82 1010.3
20260508014503 64 293 2.0 3.0 0.01 0.01 0.01 81 1010.2
20260508014004 64 285 3.0 3.0 0.01 0.01 0.01 80 1010.3
20260508013503 64 284 3.0 6.0 0.00 0.00 0.00 80 1010.2
20260508012504 65 314 2.0 6.0 0.00 0.00 0.00 80 1010.1
20260508012004 65 284 5.0 10.0 0.00 0.00 0.00 81 1010.1
20260508011504 65 257 3.0 6.0 0.00 0.00 0.00 82 1010.1
20260508011004 65 224 2.0 5.0 0.00 0.00 0.00 83 1010.1
20260508010504 65 209 2.0 10.0 0.00 0.00 0.00 83 1010.2
20260508010003 65 247 4.0 9.0 0.00 0.00 0.00 83 1010.2
20260508005503 65 217 3.0 7.0 0.00 0.00 0.00 82 1010.3
20260508005004 66 263 6.0 10.0 0.00 0.00 0.00 82 1010.2
20260508004504 66 205 3.0 8.0 0.00 0.00 0.00 82 1010.2
20260508003504 66 238 3.0 6.0 0.00 0.00 0.00 82 1010.1
20260508003004 66 211 2.0 7.0 0.00 0.00 0.00 82 1010.0
20260508002504 66 251 3.0 7.0 0.00 0.00 0.00 81 1010.0
20260508002003 66 259 3.0 6.0 0.00 0.00 0.00 80 1009.9
20260508001003 66 263 1.0 3.0 0.00 0.00 0.00 80 1009.7
20260508000504 66 263 2.0 5.0 0.00 0.00 0.00 80 1009.6
20260508000004 66 234 2.0 3.0 0.00 0.00 0.00 80 1009.8
20260507235503 66 225 3.0 6.0 0.00 0.00 0.00 80 1009.8
20260507235003 66 229 3.0 5.0 0.00 0.00 0.00 80 1009.8
20260507234503 66 249 3.0 3.0 0.00 0.00 0.00 80 1009.6
20260507233504 66 276 2.0 6.0 0.00 0.00 0.00 79 1009.5
20260507233004 66 263 1.0 3.0 0.00 0.00 0.00 79 1009.5
20260507232504 67 263 2.0 3.0 0.00 0.00 0.00 79 1009.6
20260507232003 67 224 2.0 3.0 0.00 0.00 0.00 79 1009.8
20260507231503 67 213 2.0 3.0 0.00 0.00 0.00 78 1009.8
20260507231003 67 213 2.0 3.0 0.00 0.00 0.00 77 1009.8
20260507230504 67 213 1.0 3.0 0.00 0.00 0.00 77 1009.8
20260507230004 67 213 1.0 3.0 0.00 0.00 0.00 76 1009.8
20260507225504 67 213 1.0 2.0 0.00 0.00 0.00 75 1009.9
20260507225004 67 213 1.0 3.0 0.00 0.00 0.00 75 1009.9
20260507224505 67 213 2.0 3.0 0.00 0.00 0.00 74 1009.9
20260507224003 67 213 1.0 2.0 0.00 0.00 0.00 74 1010.0
20260507223503 67 213 1.0 2.0 0.00 0.00 0.00 73 1010.0
20260507223003 68 213 0.0 1.0 0.00 0.00 0.00 72 1010.0
20260507222504 68 213 0.0 2.0 0.00 0.00 0.00 72 1010.0
20260507222004 68 213 2.0 6.0 0.00 0.00 0.00 70 1010.1
20260507221504 68 190 3.0 6.0 0.00 0.00 0.00 66 1010.2
20260507221004 68 90 2.0 3.0 0.00 0.00 0.00 61 1010.1
20260507220504 68 61 0.0 1.0 0.00 0.00 0.00 61 1010.1
20260507220004 68 60 1.0 2.0 0.00 0.00 0.00 61 1010.1
20260507215503 68 55 0.0 2.0 0.00 0.00 0.00 60 1010.2
20260507215003 68 55 0.0 1.0 0.00 0.00 0.00 60 1010.1
20260507214503 68 55 1.0 2.0 0.00 0.00 0.00 60 1010.1
20260507214004 68 55 1.0 3.0 0.00 0.00 0.00 60 1010.1
20260507213504 68 55 1.0 3.0 0.00 0.00 0.00 60 1010.1
20260507213004 68 55 1.0 3.0 0.00 0.00 0.00 60 1010.1
20260507212503 68 53 1.0 3.0 0.00 0.00 0.00 59 1010.1
20260507212003 69 51 0.0 3.0 0.00 0.00 0.00 59 1010.1
20260507211503 69 44 2.0 6.0 0.00 0.00 0.00 59 1010.2
20260507211004 69 66 1.0 2.0 0.00 0.00 0.00 59 1010.2
20260507210504 69 66 1.0 2.0 0.00 0.00 0.00 59 1010.2
20260507210004 69 67 2.0 3.0 0.00 0.00 0.00 58 1010.2
20260507205504 69 80 2.0 3.0 0.00 0.00 0.00 58 1010.3
20260507205004 69 69 3.0 5.0 0.00 0.00 0.00 58 1010.3
20260507204504 69 71 2.0 3.0 0.00 0.00 0.00 58 1010.3
20260507204004 69 69 2.0 5.0 0.00 0.00 0.00 58 1010.3
20260507202504 69 72 1.0 3.0 0.00 0.00 0.00 57 1010.4
20260507202005 69 72 2.0 3.0 0.00 0.00 0.00 57 1010.3
20260507201504 69 70 2.0 5.0 0.00 0.00 0.00 56 1010.3
20260507200004 69 31 3.0 6.0 0.00 0.00 0.00 57 1010.1
20260507195504 69 43 3.0 5.0 0.00 0.00 0.00 57 1010.3
20260507195003 69 31 3.0 6.0 0.00 0.00 0.00 57 1010.3
20260507194504 69 26 2.0 6.0 0.00 0.00 0.00 57 1010.3
20260507194004 69 87 1.0 3.0 0.00 0.00 0.00 57 1010.3
20260507193503 69 109 2.0 3.0 0.00 0.00 0.00 56 1010.3
20260507193004 69 109 2.0 3.0 0.00 0.00 0.00 56 1010.3
20260507192503 69 88 2.0 3.0 0.00 0.00 0.00 56 1010.3
20260507192004 69 63 1.0 3.0 0.00 0.00 0.00 55 1010.3
20260507191504 69 60 2.0 5.0 0.00 0.00 0.00 55 1010.3
20260507191004 69 64 2.0 5.0 0.00 0.00 0.00 55 1010.3
20260507190504 69 85 2.0 5.0 0.00 0.00 0.00 55 1010.2
20260507190005 69 73 2.0 5.0 0.00 0.00 0.00 55 1010.1
20260507185004 70 59 3.0 5.0 0.00 0.00 0.00 55 1010.1
20260507184504 70 70 2.0 3.0 0.00 0.00 0.00 54 1010.2
20260507184003 70 58 1.0 3.0 0.00 0.00 0.00 54 1010.2
20260507183504 70 45 1.0 3.0 0.00 0.00 0.00 54 1010.3
20260507183004 70 44 2.0 3.0 0.00 0.00 0.00 54 1010.3
20260507182004 70 78 1.0 3.0 0.00 0.00 0.00 54 1010.1
20260507181504 70 56 3.0 5.0 0.00 0.00 0.00 54 1010.1
20260507181004 70 63 2.0 5.0 0.00 0.00 0.00 54 1010.1
20260507180504 70 71 2.0 5.0 0.00 0.00 0.00 55 1010.0
20260507180004 70 94 3.0 6.0 0.00 0.00 0.00 55 1009.9
20260507175504 70 107 1.0 6.0 0.00 0.00 0.00 56 1009.9
20260507175004 70 88 3.0 8.0 0.00 0.00 0.00 55 1009.7
20260507174503 70 86 1.0 7.0 0.00 0.00 0.00 56 1009.6
20260507174003 70 73 3.0 5.0 0.00 0.00 0.00 56 1009.5
20260507173504 70 84 3.0 9.0 0.00 0.00 0.00 56 1009.4
20260507173004 70 56 4.0 9.0 0.00 0.00 0.00 56 1009.3
20260507172504 70 62 5.0 12.0 0.00 0.00 0.00 56 1009.4
20260507172004 70 70 5.0 9.0 0.00 0.00 0.00 56 1009.4
20260507171503 70 60 6.0 10.0 0.00 0.00 0.00 56 1009.5
20260507171004 70 54 3.0 9.0 0.00 0.00 0.00 57 1009.5
20260507170503 70 62 3.0 12.0 0.00 0.00 0.00 57 1009.6
20260507170004 70 68 3.0 10.0 0.00 0.00 0.00 58 1009.5
20260507165004 70 62 4.0 10.0 0.00 0.00 0.00 58 1009.8
20260507164504 70 76 3.0 8.0 0.00 0.00 0.00 59 1009.8
20260507164004 70 66 4.0 9.0 0.00 0.00 0.00 59 1009.9
20260507163504 70 72 3.0 9.0 0.00 0.00 0.00 59 1009.7
20260507162503 70 21 3.0 8.0 0.00 0.00 0.00 59 1009.7
20260507162004 70 39 3.0 10.0 0.00 0.00 0.00 58 1009.7
20260507161504 70 58 5.0 15.0 0.00 0.00 0.00 58 1009.9
20260507161003 71 64 7.0 13.0 0.00 0.00 0.00 58 1009.7
20260507160503 71 64 5.0 12.0 0.00 0.00 0.00 58 1009.8
20260507160003 71 52 4.0 9.0 0.00 0.00 0.00 57 1010.0
20260507155504 71 76 4.0 9.0 0.00 0.00 0.00 57 1010.0
20260507155004 71 45 2.0 9.0 0.00 0.00 0.00 56 1010.0
20260507154504 71 63 6.0 12.0 0.00 0.00 0.00 55 1010.0
20260507154003 71 66 5.0 12.0 0.00 0.00 0.00 56 1009.8
20260507153504 71 62 6.0 14.0 0.00 0.00 0.00 55 1009.7
20260507153004 71 57 4.0 15.0 0.00 0.00 0.00 56 1009.8
20260507152504 71 72 4.0 10.0 0.00 0.00 0.00 57 1009.9
20260507152003 71 55 4.0 10.0 0.00 0.00 0.00 58 1010.0
20260507151503 71 55 3.0 8.0 0.00 0.00 0.00 58 1010.2
20260507151004 71 66 5.0 9.0 0.00 0.00 0.00 58 1010.3
20260507150503 71 60 3.0 14.0 0.00 0.00 0.00 58 1010.3
20260507145503 71 67 3.0 12.0 0.00 0.00 0.00 59 1010.1
20260507145004 72 66 5.0 12.0 0.00 0.00 0.00 58 1010.1
20260507144004 71 44 6.0 15.0 0.00 0.00 0.00 58 1010.1
20260507143503 72 49 5.0 12.0 0.00 0.00 0.00 58 1010.2
20260507143004 72 39 6.0 12.0 0.00 0.00 0.00 58 1010.1
20260507142504 72 66 6.0 13.0 0.00 0.00 0.00 57 1010.1
20260507142003 72 49 6.0 12.0 0.00 0.00 0.00 57 1010.1
20260507141003 73 70 7.0 13.0 0.00 0.00 0.00 55 1010.1
20260507140503 73 80 4.0 12.0 0.00 0.00 0.00 55 1009.9
20260507135504 73 68 4.0 10.0 0.00 0.00 0.00 55 1010.1
20260507135004 73 59 3.0 9.0 0.00 0.00 0.00 56 1010.2
20260507134003 73 158 2.0 6.0 0.00 0.00 0.00 56 1010.5
20260507133504 73 157 3.0 6.0 0.00 0.00 0.00 56 1010.5
20260507132504 73 176 3.0 7.0 0.00 0.00 0.00 57 1010.5
20260507132004 73 179 5.0 7.0 0.00 0.00 0.00 56 1010.5
20260507131003 73 167 4.0 7.0 0.00 0.00 0.00 57 1010.7
20260507130504 73 155 2.0 5.0 0.00 0.00 0.00 56 1010.6
20260507130004 73 148 4.0 7.0 0.00 0.00 0.00 56 1010.6
20260507125004 73 120 3.0 8.0 0.00 0.00 0.00 57 1010.4
20260507124504 73 163 2.0 7.0 0.00 0.00 0.00 57 1010.6
20260507124004 73 175 3.0 6.0 0.00 0.01 0.00 57 1010.6
20260507123004 73 185 5.0 8.0 0.00 0.01 0.00 57 1010.7
20260507122504 73 163 5.0 7.0 0.00 0.02 0.00 56 1010.7
20260507121504 73 179 3.0 7.0 0.00 0.02 0.00 57 1010.7
20260507121004 73 158 5.0 7.0 0.00 0.02 0.00 57 1010.8
20260507120504 72 190 3.0 6.0 0.00 0.02 0.00 58 1010.8
20260507120005 72 182 3.0 9.0 0.00 0.02 0.00 58 1010.9
20260507115004 73 180 4.0 8.0 0.00 0.02 0.00 57 1010.8
20260507114004 73 170 3.0 7.0 0.00 0.02 0.00 58 1011.0
20260507113504 73 186 3.0 7.0 0.00 0.02 0.00 57 1011.1
20260507113004 73 182 3.0 8.0 0.00 0.02 0.00 55 1011.0
20260507112504 73 180 3.0 7.0 0.00 0.02 0.00 55 1011.0
20260507112004 73 163 4.0 9.0 0.00 0.02 0.00 55 1011.0
20260507111504 73 162 4.0 6.0 0.00 0.02 0.00 53 1011.1
20260507111004 74 152 4.0 8.0 0.00 0.02 0.00 54 1011.1
20260507110504 74 128 2.0 5.0 0.00 0.02 0.00 52 1011.2
20260507110003 74 133 3.0 6.0 0.00 0.02 0.00 54 1011.2
20260507105504 74 182 2.0 7.0 0.00 0.02 0.00 54 1011.3
20260507105004 74 147 4.0 7.0 0.00 0.02 0.00 53 1011.2
20260507104504 73 163 2.0 6.0 0.00 0.02 0.00 56 1011.2
20260507104004 73 153 4.0 7.0 0.00 0.02 0.00 58 1011.3
20260507103504 73 183 5.0 7.0 0.00 0.02 0.00 57 1011.4
20260507103004 73 183 3.0 6.0 0.00 0.02 0.00 58 1011.4
20260507102504 74 162 5.0 7.0 0.00 0.02 0.00 57 1011.5
20260507101503 74 175 3.0 8.0 0.00 0.02 0.00 58 1011.5
20260507101004 74 124 2.0 5.0 0.00 0.02 0.00 57 1011.5
20260507100504 73 130 3.0 7.0 0.00 0.02 0.00 55 1011.5
20260507100004 73 151 2.0 3.0 0.00 0.02 0.00 58 1011.5
20260507095004 73 172 3.0 7.0 0.00 0.02 0.00 60 1011.6
20260507094504 73 118 3.0 6.0 0.00 0.02 0.00 62 1011.5
20260507094004 72 109 2.0 3.0 0.00 0.02 0.00 61 1011.6
20260507093504 72 122 1.0 6.0 0.00 0.02 0.00 65 1011.7
20260507093004 71 125 3.0 6.0 0.00 0.02 0.00 66 1011.7
20260507092504 70 358 5.0 8.0 0.00 0.02 0.00 66 1011.8
20260507092003 70 23 3.0 7.0 0.00 0.02 0.00 69 1011.9
20260507091004 69 186 2.0 5.0 0.00 0.02 0.00 73 1012.0
20260507090504 68 161 2.0 5.0 0.00 0.02 0.00 73 1011.9
20260507090004 67 161 2.0 5.0 0.00 0.02 0.00 75 1011.9
20260507085503 67 160 2.0 6.0 0.00 0.02 0.00 75 1011.9
20260507085004 67 146 3.0 6.0 0.00 0.02 0.00 75 1012.1
20260507084503 67 179 4.0 7.0 0.00 0.02 0.00 76 1012.0
20260507083504 67 150 4.0 8.0 0.00 0.02 0.00 75 1011.9
20260507082504 68 114 5.0 9.0 0.00 0.02 0.00 71 1011.7
20260507082004 69 132 5.0 8.0 0.00 0.02 0.00 71 1011.7
20260507081504 68 144 2.0 3.0 0.00 0.02 0.00 71 1011.6
20260507081004 68 236 2.0 3.0 0.00 0.02 0.00 73 1011.6
20260507080503 67 254 1.0 3.0 0.00 0.02 0.00 74 1011.6
20260507075503 66 278 0.0 2.0 0.00 0.02 0.00 78 1011.6
20260507074504 65 278 0.0 0.0 0.00 0.02 0.00 81 1011.7
20260507074004 65 278 0.0 3.0 0.00 0.02 0.00 82 1011.7
20260507073503 64 278 0.0 2.0 0.00 0.02 0.00 83 1012.0
20260507072503 63 278 2.0 3.0 0.00 0.02 0.00 85 1012.2
20260507072004 63 278 1.0 3.0 0.00 0.02 0.00 86 1012.2
20260507071504 63 279 3.0 3.0 0.00 0.02 0.00 86 1012.0
20260507070504 62 315 2.0 3.0 0.00 0.02 0.00 87 1011.9
20260507065504 61 325 3.0 5.0 0.00 0.02 0.00 88 1011.9
20260507065003 61 299 4.0 7.0 0.00 0.02 0.00 88 1011.8